TimeCST,TemperatureF,Dew PointF,Humidity,Sea Level PressureIn,VisibilityMPH,Wind Direction,Wind SpeedMPH,Gust SpeedMPH,PrecipitationIn,Events,Conditions,WindDirDegrees,DateUTC
12:15 AM,39.4,24.8,56,30.29,10.0,ESE,4.6,-,N/A,,Clear,120,2012-12-05 06:15:00
12:35 AM,37.9,24.8,59,30.29,10.0,ESE,6.9,-,N/A,,Clear,120,2012-12-05 06:35:00
12:55 AM,38.1,24.6,58,30.29,10.0,East,6.9,-,N/A,,Clear,100,2012-12-05 06:55:00
1:15 AM,37.9,24.8,59,30.30,10.0,East,6.9,-,N/A,,Clear,100,2012-12-05 07:15:00
1:55 AM,36.3,25.0,63,30.30,10.0,East,9.2,-,N/A,,Clear,100,2012-12-05 07:55:00
2:15 AM,36.9,25.3,63,30.30,10.0,East,9.2,-,N/A,,Clear,100,2012-12-05 08:15:00
2:35 AM,36.1,25.5,65,30.31,10.0,ESE,8.1,-,N/A,,Clear,110,2012-12-05 08:35:00
2:55 AM,34.9,25.5,69,30.31,10.0,ESE,8.1,-,N/A,,Clear,110,2012-12-05 08:55:00
3:15 AM,35.8,26.2,68,30.30,10.0,ESE,10.4,-,N/A,,Clear,110,2012-12-05 09:15:00
3:35 AM,36.5,26.6,67,30.30,10.0,ESE,11.5,-,N/A,,Clear,110,2012-12-05 09:35:00
3:55 AM,36.3,26.6,68,30.29,10.0,ESE,11.5,-,N/A,,Clear,120,2012-12-05 09:55:00
4:15 AM,35.6,26.6,70,30.28,10.0,ESE,11.5,-,N/A,,Clear,110,2012-12-05 10:15:00
4:35 AM,35.2,26.4,70,30.29,10.0,ESE,10.4,-,N/A,,Clear,110,2012-12-05 10:35:00
4:55 AM,34.9,26.4,71,30.29,10.0,ESE,10.4,-,N/A,,Clear,120,2012-12-05 10:55:00
5:15 AM,34.7,26.4,72,30.28,10.0,ESE,9.2,-,N/A,,Clear,120,2012-12-05 11:15:00
5:35 AM,33.8,26.4,74,30.28,10.0,SE,8.1,-,N/A,,Clear,130,2012-12-05 11:35:00
5:55 AM,34.3,26.6,73,30.26,10.0,ESE,10.4,16.1,N/A,,Clear,120,2012-12-05 11:55:00
6:15 AM,34.7,26.6,72,30.26,10.0,SE,12.7,16.1,N/A,,Clear,130,2012-12-05 12:15:00
6:35 AM,34.7,26.6,72,30.25,10.0,SE,10.4,-,N/A,,Clear,130,2012-12-05 12:35:00
6:55 AM,34.0,26.6,74,30.25,10.0,ESE,9.2,-,N/A,,Clear,120,2012-12-05 12:55:00
8:35 AM,35.1,27.1,73,30.24,10.0,SE,12.7,-,N/A,,Clear,140,2012-12-05 14:35:00
8:55 AM,35.6,27.5,72,30.25,10.0,SE,11.5,-,N/A,,Clear,140,2012-12-05 14:55:00
9:15 AM,36.0,27.5,71,30.24,10.0,SE,11.5,-,N/A,,Clear,140,2012-12-05 15:15:00
9:35 AM,36.9,27.9,70,30.24,10.0,SE,11.5,17.3,N/A,,Clear,140,2012-12-05 15:35:00
9:55 AM,37.8,28.0,68,30.23,10.0,SE,15.0,-,N/A,,Clear,140,2012-12-05 15:55:00
10:15 AM,39.2,28.2,65,30.23,10.0,SE,13.8,-,N/A,,Clear,140,2012-12-05 16:15:00
10:35 AM,40.1,28.2,63,30.22,10.0,SE,12.7,-,N/A,,Clear,140,2012-12-05 16:35:00
10:55 AM,41.9,28.4,59,30.21,10.0,SE,13.8,-,N/A,,Clear,140,2012-12-05 16:55:00
11:15 AM,42.8,28.2,56,30.21,10.0,SSE,11.5,18.4,N/A,,Clear,150,2012-12-05 17:15:00
11:35 AM,44.1,28.0,53,30.19,10.0,SSE,15.0,-,N/A,,Clear,150,2012-12-05 17:35:00
11:55 AM,44.6,28.4,53,30.16,10.0,SSE,12.7,-,N/A,,Clear,150,2012-12-05 17:55:00
12:15 PM,46.4,28.8,50,30.15,10.0,SSE,10.4,-,N/A,,Clear,150,2012-12-05 18:15:00
12:35 PM,47.7,29.1,49,30.13,10.0,SSE,10.4,-,N/A,,Clear,150,2012-12-05 18:35:00
12:55 PM,50.0,29.7,46,30.11,10.0,SE,11.5,-,N/A,,Clear,140,2012-12-05 18:55:00
1:15 PM,51.3,29.7,44,30.09,10.0,SSE,11.5,-,N/A,,Clear,150,2012-12-05 19:15:00
1:35 PM,52.0,29.7,42,30.08,10.0,SSE,11.5,-,N/A,,Clear,150,2012-12-05 19:35:00
1:55 PM,52.2,30.6,44,30.07,10.0,SE,10.4,-,N/A,,Clear,140,2012-12-05 19:55:00
2:15 PM,53.1,31.1,43,30.05,10.0,SE,10.4,-,N/A,,Clear,140,2012-12-05 20:15:00
2:35 PM,55.4,28.9,36,30.04,10.0,SSE,9.2,-,N/A,,Clear,150,2012-12-05 20:35:00
2:55 PM,59.4,21.4,23,30.03,10.0,South,24.2,36.8,N/A,,Clear,180,2012-12-05 20:55:00
3:15 PM,59.4,21.9,24,30.02,10.0,South,17.3,26.5,N/A,,Clear,170,2012-12-05 21:15:00
3:35 PM,59.9,21.2,22,30.02,10.0,South,21.9,27.6,N/A,,Clear,180,2012-12-05 21:35:00
3:55 PM,58.6,20.1,22,30.01,10.0,SSE,17.3,28.8,N/A,,Clear,160,2012-12-05 21:55:00
4:15 PM,57.7,21.4,24,30.01,10.0,SSE,16.1,21.9,N/A,,Clear,160,2012-12-05 22:15:00
4:35 PM,56.7,22.6,27,30.00,10.0,SSE,12.7,-,N/A,,Clear,160,2012-12-05 22:35:00
4:55 PM,55.8,23.0,28,30.00,10.0,SSE,13.8,20.7,N/A,,Clear,160,2012-12-05 22:55:00
5:15 PM,55.0,22.8,29,29.99,10.0,SSE,17.3,21.9,N/A,,Clear,160,2012-12-05 23:15:00
5:35 PM,54.5,23.0,29,29.98,10.0,SSE,13.8,18.4,N/A,,Clear,150,2012-12-05 23:35:00
5:55 PM,54.7,23.0,29,29.98,10.0,SSE,17.3,23.0,N/A,,Clear,160,2012-12-05 23:55:00
6:15 PM,53.6,23.0,30,29.97,10.0,SSE,15.0,-,N/A,,Clear,150,2012-12-06 00:15:00
6:35 PM,53.2,23.0,31,29.97,10.0,SSE,15.0,21.9,N/A,,Clear,150,2012-12-06 00:35:00
6:55 PM,52.7,23.2,32,29.96,10.0,SSE,18.4,25.3,N/A,,Clear,150,2012-12-06 00:55:00
7:15 PM,52.0,23.7,33,29.97,10.0,SSE,17.3,-,N/A,,Clear,150,2012-12-06 01:15:00
7:35 PM,51.6,23.9,34,29.96,10.0,SSE,18.4,24.2,N/A,,Clear,160,2012-12-06 01:35:00
7:55 PM,51.8,24.6,35,29.96,10.0,SSE,19.6,25.3,N/A,,Clear,160,2012-12-06 01:55:00
8:15 PM,51.4,24.8,35,29.95,10.0,SSE,18.4,26.5,N/A,,Clear,150,2012-12-06 02:15:00
8:35 PM,50.2,25.5,38,29.95,10.0,SSE,13.8,19.6,N/A,,Clear,150,2012-12-06 02:35:00
8:55 PM,50.7,25.7,38,29.94,10.0,SSE,19.6,24.2,N/A,,Clear,160,2012-12-06 02:55:00
9:15 PM,50.7,26.1,38,29.94,10.0,SSE,18.4,26.5,N/A,,Clear,160,2012-12-06 03:15:00
9:35 PM,50.7,26.2,39,29.94,10.0,South,19.6,27.6,N/A,,Clear,170,2012-12-06 03:35:00
9:55 PM,50.5,26.6,39,29.94,10.0,South,18.4,27.6,N/A,,Clear,170,2012-12-06 03:55:00
10:15 PM,49.8,27.1,41,29.94,10.0,South,17.3,23.0,N/A,,Clear,170,2012-12-06 04:15:00
10:35 PM,49.3,27.5,43,29.94,10.0,South,16.1,21.9,N/A,,Clear,170,2012-12-06 04:35:00
10:55 PM,49.1,27.9,44,29.94,10.0,South,18.4,21.9,N/A,,Clear,180,2012-12-06 04:55:00
11:15 PM,48.6,28.0,45,29.95,10.0,South,16.1,20.7,N/A,,Clear,170,2012-12-06 05:15:00
11:35 PM,48.2,28.2,46,29.95,10.0,SSE,13.8,-,N/A,,Mostly Cloudy,160,2012-12-06 05:35:00
11:55 PM,47.7,28.4,47,29.94,10.0,SSE,12.7,18.4,N/A,,Mostly Cloudy,160,2012-12-06 05:55:00